Time,TemperatureF,DewpointF,PressureIn,WindDirection,WindDirectionDegrees,WindSpeedMPH,WindSpeedGustMPH,Humidity,HourlyPrecipIn,Conditions,Clouds,dailyrainin,SolarRadiationWatts/m^2,SoftwareType,DateUTC
2013-11-01 00:03:00,46.0,46.0,-100.00,NNW,334,6.0,11.0,99,0.07,,,-99.99,0.000000,,2013-11-01 05:03:00,
2013-11-01 00:12:00,46.0,46.0,-100.00,NNW,334,6.0,11.0,99,0.07,,,-99.99,0.000000,,2013-11-01 05:12:00,
2013-11-01 00:42:00,45.0,44.0,-100.00,NW,309,5.0,13.0,97,0.07,,,-99.99,0.000000,,2013-11-01 05:42:00,
2013-11-01 00:53:00,45.0,44.0,-100.00,NW,309,5.0,13.0,97,0.07,,,-99.99,0.000000,,2013-11-01 05:53:00,
2013-11-01 01:02:00,45.0,44.0,-100.00,NW,309,5.0,13.0,97,0.07,,,-99.99,0.000000,,2013-11-01 06:02:00,
2013-11-01 01:12:00,45.0,44.0,-100.00,NW,309,5.0,13.0,97,0.07,,,-99.99,0.000000,,2013-11-01 06:12:00,
2013-11-01 01:42:00,44.0,43.0,-100.00,NW,310,6.0,15.0,96,0.13,,,-99.99,0.000000,,2013-11-01 06:42:00,
2013-11-01 01:52:00,44.0,43.0,-100.00,NW,310,6.0,15.0,96,0.13,,,-99.99,0.000000,,2013-11-01 06:52:00,
2013-11-01 02:02:00,44.0,43.0,-100.00,NW,310,6.0,15.0,96,0.13,,,-99.99,0.000000,,2013-11-01 07:02:00,
2013-11-01 02:12:00,44.0,43.0,-100.00,NW,310,6.0,15.0,96,0.13,,,-99.99,0.000000,,2013-11-01 07:12:00,
2013-11-01 02:42:00,43.0,42.0,-100.00,WNW,302,5.0,12.0,96,0.09,,,-99.99,0.000000,,2013-11-01 07:42:00,
2013-11-01 02:52:00,43.0,42.0,-100.00,WNW,302,5.0,12.0,96,0.09,,,-99.99,0.000000,,2013-11-01 07:52:00,
2013-11-01 03:03:00,43.0,42.0,-100.00,WNW,302,5.0,12.0,96,0.09,,,-99.99,0.000000,,2013-11-01 08:03:00,
2013-11-01 03:12:00,43.0,42.0,-100.00,WNW,302,5.0,12.0,96,0.09,,,-99.99,0.000000,,2013-11-01 08:12:00,
2013-11-01 03:42:00,43.0,42.0,-100.00,WNW,300,6.0,15.0,96,0.01,,,-99.99,0.000000,,2013-11-01 08:42:00,
2013-11-01 03:52:00,43.0,42.0,-100.00,WNW,300,6.0,15.0,96,0.01,,,-99.99,0.000000,,2013-11-01 08:52:00,
2013-11-01 04:02:00,43.0,42.0,-100.00,WNW,300,6.0,15.0,96,0.01,,,-99.99,0.000000,,2013-11-01 09:02:00,
2013-11-01 04:12:00,43.0,42.0,-100.00,WNW,300,6.0,15.0,96,0.01,,,-99.99,0.000000,,2013-11-01 09:12:00,
2013-11-01 04:13:00,42.0,41.0,-100.00,NW,305,7.0,16.0,95,0.01,,,-99.99,0.000000,,2013-11-01 09:13:00,
2013-11-01 04:43:00,42.0,41.0,-100.00,NW,305,7.0,16.0,95,0.01,,,-99.99,0.000000,,2013-11-01 09:43:00,
2013-11-01 04:53:00,42.0,41.0,-100.00,NW,305,7.0,16.0,95,0.01,,,-99.99,0.000000,,2013-11-01 09:53:00,
2013-11-01 05:03:00,42.0,41.0,-100.00,NW,305,7.0,16.0,95,0.01,,,-99.99,0.000000,,2013-11-01 10:03:00,
2013-11-01 05:43:00,42.0,40.0,-100.00,WNW,300,5.0,18.0,93,0.00,,,-99.99,0.000000,,2013-11-01 10:43:00,
2013-11-01 05:53:00,42.0,40.0,-100.00,WNW,300,5.0,18.0,93,0.00,,,-99.99,0.000000,,2013-11-01 10:53:00,
2013-11-01 06:02:00,42.0,40.0,-100.00,WNW,300,5.0,18.0,93,0.00,,,-99.99,0.000000,,2013-11-01 11:02:00,
2013-11-01 06:12:00,42.0,40.0,-100.00,WNW,300,5.0,18.0,93,0.00,,,-99.99,0.000000,,2013-11-01 11:12:00,
2013-11-01 06:42:00,42.0,40.0,-100.00,WNW,296,5.0,14.0,93,0.00,,,-99.99,0.000000,,2013-11-01 11:42:00,
2013-11-01 06:52:00,42.0,40.0,-100.00,WNW,296,5.0,14.0,93,0.00,,,-99.99,0.000000,,2013-11-01 11:52:00,
2013-11-01 07:02:00,42.0,40.0,-100.00,WNW,296,5.0,14.0,93,0.00,,,-99.99,0.000000,,2013-11-01 12:02:00,
2013-11-01 07:12:00,42.0,40.0,-100.00,WNW,296,5.0,14.0,93,0.00,,,-99.99,0.000000,,2013-11-01 12:12:00,
2013-11-01 07:42:00,41.0,39.0,-100.00,WNW,291,5.0,12.0,93,0.00,,,-99.99,0.000000,,2013-11-01 12:42:00,
2013-11-01 07:52:00,41.0,39.0,-100.00,WNW,291,5.0,12.0,93,0.00,,,-99.99,0.000000,,2013-11-01 12:52:00,
2013-11-01 08:01:00,41.0,39.0,-100.00,WNW,291,5.0,12.0,93,0.00,,,-99.99,0.000000,,2013-11-01 13:01:00,
2013-11-01 08:12:00,41.0,39.0,-100.00,WNW,291,5.0,12.0,93,0.00,,,-99.99,0.000000,,2013-11-01 13:12:00,
2013-11-01 08:42:00,41.0,39.0,-100.00,WNW,295,5.0,15.0,92,0.00,,,-99.99,4.000000,,2013-11-01 13:42:00,
2013-11-01 08:52:00,41.0,39.0,-100.00,WNW,295,5.0,15.0,92,0.00,,,-99.99,4.000000,,2013-11-01 13:52:00,
2013-11-01 09:02:00,41.0,39.0,-100.00,WNW,295,5.0,15.0,92,0.00,,,-99.99,4.000000,,2013-11-01 14:02:00,
2013-11-01 09:11:00,41.0,39.0,-100.00,WNW,295,5.0,15.0,92,0.00,,,-99.99,4.000000,,2013-11-01 14:11:00,
2013-11-01 09:42:00,41.0,39.0,-100.00,WNW,299,6.0,17.0,92,0.00,,,-99.99,13.000000,,2013-11-01 14:42:00,
2013-11-01 09:52:00,41.0,39.0,-100.00,WNW,299,6.0,17.0,92,0.00,,,-99.99,13.000000,,2013-11-01 14:52:00,
2013-11-01 10:02:00,41.0,39.0,-100.00,WNW,299,6.0,17.0,92,0.00,,,-99.99,13.000000,,2013-11-01 15:02:00,
2013-11-01 10:11:00,41.0,39.0,-100.00,WNW,299,6.0,17.0,92,0.00,,,-99.99,13.000000,,2013-11-01 15:11:00,
2013-11-01 10:44:00,41.0,38.0,-100.00,NW,307,4.0,15.0,89,0.00,,,0.75,30.000000,,2013-11-01 15:44:00,
2013-11-01 10:54:00,41.0,38.0,-100.00,NW,307,4.0,15.0,89,0.00,,,0.75,30.000000,,2013-11-01 15:54:00,
2013-11-01 11:04:00,41.0,38.0,-100.00,NW,307,4.0,15.0,89,0.00,,,0.75,30.000000,,2013-11-01 16:04:00,
2013-11-01 11:12:00,41.0,38.0,-100.00,NW,307,4.0,15.0,89,0.00,,,0.75,30.000000,,2013-11-01 16:12:00,
2013-11-01 11:43:00,41.0,38.0,-100.00,WNW,294,4.0,9.0,88,0.00,,,0.72,58.000000,,2013-11-01 16:43:00,
2013-11-01 11:53:00,41.0,38.0,-100.00,WNW,294,4.0,9.0,88,0.00,,,0.72,58.000000,,2013-11-01 16:53:00,
2013-11-01 12:02:00,41.0,38.0,-100.00,WNW,294,4.0,9.0,88,0.00,,,0.72,58.000000,,2013-11-01 17:02:00,
2013-11-01 12:12:00,41.0,38.0,-100.00,WNW,294,4.0,9.0,88,0.00,,,0.72,58.000000,,2013-11-01 17:12:00,
2013-11-01 12:43:00,43.0,38.0,-100.00,WNW,302,4.0,10.0,83,0.00,,,0.69,127.000000,,2013-11-01 17:43:00,
2013-11-01 12:52:00,43.0,38.0,-100.00,WNW,302,4.0,10.0,83,0.00,,,0.69,127.000000,,2013-11-01 17:52:00,
2013-11-01 13:01:00,43.0,38.0,-100.00,WNW,302,4.0,10.0,83,0.00,,,0.69,127.000000,,2013-11-01 18:01:00,
2013-11-01 13:12:00,43.0,38.0,-100.00,WNW,302,4.0,10.0,83,0.00,,,0.69,127.000000,,2013-11-01 18:12:00,
2013-11-01 13:42:00,43.0,39.0,-100.00,NW,314,5.0,13.0,85,0.00,,,0.68,124.000000,,2013-11-01 18:42:00,
2013-11-01 13:52:00,43.0,39.0,-100.00,NW,314,5.0,13.0,85,0.00,,,0.68,124.000000,,2013-11-01 18:52:00,
2013-11-01 14:02:00,43.0,39.0,-100.00,NW,314,5.0,13.0,85,0.00,,,0.68,124.000000,,2013-11-01 19:02:00,
2013-11-01 14:12:00,43.0,39.0,-100.00,NW,314,5.0,13.0,85,0.00,,,0.68,124.000000,,2013-11-01 19:12:00,
2013-11-01 14:42:00,43.0,38.0,-100.00,NW,313,6.0,13.0,81,0.00,,,0.68,132.000000,,2013-11-01 19:42:00,
2013-11-01 14:52:00,43.0,38.0,-100.00,NW,313,6.0,13.0,81,0.00,,,0.68,132.000000,,2013-11-01 19:52:00,
2013-11-01 15:02:00,43.0,38.0,-100.00,NW,313,6.0,13.0,81,0.00,,,0.68,132.000000,,2013-11-01 20:02:00,
2013-11-01 15:12:00,43.0,38.0,-100.00,NW,313,6.0,13.0,81,0.00,,,0.68,132.000000,,2013-11-01 20:12:00,
2013-11-01 15:42:00,42.0,37.0,-100.00,WNW,302,4.0,8.0,82,0.00,,,0.68,63.000000,,2013-11-01 20:42:00,
2013-11-01 15:52:00,42.0,37.0,-100.00,WNW,302,4.0,8.0,82,0.00,,,0.68,63.000000,,2013-11-01 20:52:00,
2013-11-01 16:01:00,42.0,37.0,-100.00,WNW,302,4.0,8.0,82,0.00,,,0.68,63.000000,,2013-11-01 21:01:00,
2013-11-01 16:12:00,42.0,37.0,-100.00,WNW,302,4.0,8.0,82,0.00,,,0.68,63.000000,,2013-11-01 21:12:00,
2013-11-01 16:13:00,41.0,37.0,-100.00,NW,307,4.0,10.0,85,0.00,,,0.68,18.000000,,2013-11-01 21:13:00,
2013-11-01 16:44:00,41.0,37.0,-100.00,NW,307,4.0,10.0,85,0.00,,,0.68,18.000000,,2013-11-01 21:44:00,
2013-11-01 16:55:00,41.0,37.0,-100.00,NW,307,4.0,10.0,85,0.00,,,0.68,18.000000,,2013-11-01 21:55:00,
2013-11-01 17:03:00,41.0,37.0,-100.00,NW,307,4.0,10.0,85,0.00,,,0.68,18.000000,,2013-11-01 22:03:00,
2013-11-01 17:42:00,40.0,38.0,-100.00,NW,316,3.0,8.0,91,0.00,,,0.67,25.000000,,2013-11-01 22:42:00,
2013-11-01 17:53:00,40.0,38.0,-100.00,NW,316,3.0,8.0,91,0.00,,,0.67,25.000000,,2013-11-01 22:53:00,
2013-11-01 18:03:00,40.0,38.0,-100.00,NW,316,3.0,8.0,91,0.00,,,0.67,25.000000,,2013-11-01 23:03:00,
2013-11-01 18:12:00,40.0,38.0,-100.00,NW,316,3.0,8.0,91,0.00,,,0.67,25.000000,,2013-11-01 23:12:00,
2013-11-01 18:42:00,40.0,38.0,-100.00,NW,317,3.0,8.0,91,0.00,,,0.62,3.000000,,2013-11-01 23:42:00,
2013-11-01 18:53:00,40.0,38.0,-100.00,NW,317,3.0,8.0,91,0.00,,,0.62,3.000000,,2013-11-01 23:53:00,
2013-11-01 19:02:00,40.0,38.0,-100.00,NW,317,3.0,8.0,91,0.00,,,0.62,3.000000,,2013-11-02 00:02:00,
2013-11-01 19:11:00,40.0,38.0,-100.00,NW,317,3.0,8.0,91,0.00,,,0.62,3.000000,,2013-11-02 00:11:00,
2013-11-01 19:42:00,39.0,37.0,-100.00,North,6,2.0,6.0,91,0.00,,,-99.99,0.000000,,2013-11-02 00:42:00,
2013-11-01 19:52:00,39.0,37.0,-100.00,North,6,2.0,6.0,91,0.00,,,-99.99,0.000000,,2013-11-02 00:52:00,
2013-11-01 20:02:00,39.0,37.0,-100.00,North,6,2.0,6.0,91,0.00,,,-99.99,0.000000,,2013-11-02 01:02:00,
2013-11-01 20:12:00,39.0,37.0,-100.00,North,6,2.0,6.0,91,0.00,,,-99.99,0.000000,,2013-11-02 01:12:00,
2013-11-01 20:42:00,38.0,36.0,-100.00,WNW,299,2.0,6.0,91,0.00,,,0.51,0.000000,,2013-11-02 01:42:00,
2013-11-01 20:52:00,38.0,36.0,-100.00,WNW,299,2.0,6.0,91,0.00,,,0.51,0.000000,,2013-11-02 01:52:00,
2013-11-01 21:02:00,38.0,36.0,-100.00,WNW,299,2.0,6.0,91,0.00,,,0.51,0.000000,,2013-11-02 02:02:00,
2013-11-01 21:11:00,38.0,36.0,-100.00,WNW,299,2.0,6.0,91,0.00,,,0.51,0.000000,,2013-11-02 02:11:00,
2013-11-01 21:42:00,38.0,36.0,-100.00,NW,319,2.0,5.0,92,0.00,,,0.44,0.000000,,2013-11-02 02:42:00,
2013-11-01 21:53:00,38.0,36.0,-100.00,NW,319,2.0,5.0,92,0.00,,,0.44,0.000000,,2013-11-02 02:53:00,
2013-11-01 22:02:00,38.0,36.0,-100.00,NW,319,2.0,5.0,92,0.00,,,0.44,0.000000,,2013-11-02 03:02:00,
2013-11-01 22:11:00,38.0,36.0,-100.00,NW,319,2.0,5.0,92,0.00,,,0.44,0.000000,,2013-11-02 03:11:00,
2013-11-01 22:13:00,38.0,35.0,-100.00,NW,318,3.0,6.0,90,0.00,,,0.38,0.000000,,2013-11-02 03:13:00,
2013-11-01 22:44:00,38.0,35.0,-100.00,NW,318,3.0,6.0,90,0.00,,,0.38,0.000000,,2013-11-02 03:44:00,
2013-11-01 22:54:00,38.0,35.0,-100.00,NW,318,3.0,6.0,90,0.00,,,0.38,0.000000,,2013-11-02 03:54:00,
2013-11-01 23:04:00,38.0,35.0,-100.00,NW,318,3.0,6.0,90,0.00,,,0.38,0.000000,,2013-11-02 04:04:00,
2013-11-01 23:13:00,37.0,35.0,-100.00,NNE,14,2.0,7.0,92,0.00,,,0.31,0.000000,,2013-11-02 04:13:00,
2013-11-01 23:44:00,37.0,35.0,-100.00,NNE,14,2.0,7.0,92,0.00,,,0.31,0.000000,,2013-11-02 04:44:00,
2013-11-01 23:54:00,37.0,35.0,-100.00,NNE,14,2.0,7.0,92,0.00,,,0.31,0.000000,,2013-11-02 04:54:00,